ZXP02 EHAM-EHAM

Flight info

Callsign ZXP02
Flight time 0h 6m
Altitude 1000
Route VFR OPS
Aircraft EC45/L-SDFGRY/C

Departure

Time 2026-04-17 09:13
Airport Amsterdam Airport Schiphol (EHAM)

Arrival

Time 2026-04-17 09:19
Airport Amsterdam Airport Schiphol (EHAM)
Time Latitude Longitude Altitude Speed Heading
2026-04-17 09:13 52.48137 4.81517 1001 ft 91 kts 223°
2026-04-17 09:13 52.47688 4.80788 1002 ft 91 kts 223°
2026-04-17 09:14 52.47238 4.80043 991 ft 93 kts 223°
2026-04-17 09:14 52.46762 4.79249 1000 ft 100 kts 223°
2026-04-17 09:14 52.46266 4.78434 1003 ft 102 kts 223°
2026-04-17 09:14 52.45771 4.77607 999 ft 102 kts 223°
2026-04-17 09:15 52.45272 4.76760 998 ft 104 kts 224°
2026-04-17 09:15 52.44755 4.75908 998 ft 106 kts 223°
2026-04-17 09:15 52.44233 4.75056 999 ft 105 kts 223°
2026-04-17 09:15 52.43713 4.74226 1000 ft 104 kts 223°
2026-04-17 09:16 52.43178 4.73374 1005 ft 108 kts 223°
2026-04-17 09:16 52.42636 4.72536 999 ft 107 kts 217°
2026-04-17 09:16 52.42004 4.71898 995 ft 107 kts 208°
2026-04-17 09:16 52.41357 4.71304 999 ft 108 kts 208°
2026-04-17 09:17 52.40689 4.70698 1005 ft 110 kts 208°
2026-04-17 09:17 52.40016 4.70116 1000 ft 108 kts 208°
2026-04-17 09:17 52.39360 4.69532 1000 ft 107 kts 208°
2026-04-17 09:17 52.38732 4.68892 1002 ft 106 kts 213°
2026-04-17 09:18 52.38120 4.68221 992 ft 106 kts 213°
2026-04-17 09:18 52.37509 4.67545 989 ft 106 kts 213°
2026-04-17 09:18 52.36963 4.66907 1076 ft 87 kts 215°
2026-04-17 09:18 52.36480 4.66285 1050 ft 87 kts 230°
2026-04-17 09:19 52.36403 4.65364 936 ft 87 kts 302°
2026-04-17 09:19 52.36933 4.65041 805 ft 81 kts 22°
2026-04-17 09:19 52.37019 4.65628 651 ft 51 kts 155°
2026-04-17 09:19 52.36763 4.65727 567 ft 33 kts 178°
2026-04-17 09:20 52.36585 4.65860 522 ft 22 kts 169°
2026-04-17 09:20 52.36350 4.65795 489 ft 60 kts 189°
2026-04-17 09:20 52.35748 4.65849 474 ft 104 kts 173°
2026-04-17 09:20 52.35263 4.65898 509 ft 36 kts 207°
2026-04-17 09:21 52.34982 4.65585 473 ft 59 kts 215°
2026-04-17 09:21 52.34635 4.65096 575 ft 72 kts 219°
2026-04-17 09:21 52.34265 4.64478 641 ft 78 kts 224°
2026-04-17 09:21 52.33906 4.63827 580 ft 76 kts 225°
2026-04-17 09:22 52.33558 4.63161 530 ft 78 kts 227°
2026-04-17 09:22 52.33184 4.62377 555 ft 90 kts 230°
2026-04-17 09:22 52.32842 4.61560 679 ft 87 kts 233°
2026-04-17 09:22 52.32700 4.60596 744 ft 92 kts 273°
2026-04-17 09:23 52.33038 4.59712 767 ft 95 kts 316°
2026-04-17 09:23 52.33603 4.59064 766 ft 108 kts 324°
2026-04-17 09:23 52.34282 4.58513 784 ft 108 kts 332°
2026-04-17 09:23 52.34964 4.57988 787 ft 109 kts 332°
2026-04-17 09:24 52.35645 4.57453 789 ft 108 kts 332°
2026-04-17 09:24 52.36322 4.56922 791 ft 108 kts 332°
2026-04-17 09:24 52.36941 4.56315 808 ft 99 kts 308°
2026-04-17 09:24 52.37246 4.55367 802 ft 92 kts 301°
2026-04-17 09:25 52.37877 4.54974 800 ft 105 kts 333°
2026-04-17 09:25 52.38589 4.54756 801 ft 107 kts 12°
2026-04-17 09:25 52.39285 4.54700 787 ft 101 kts 306°
2026-04-17 09:25 52.39072 4.53892 742 ft 96 kts 210°
2026-04-17 09:26 52.38649 4.53509 677 ft 40 kts 203°
2026-04-17 09:26 52.38241 4.53183 752 ft 94 kts 205°
2026-04-17 09:26 52.37836 4.52858 807 ft 31 kts 199°
2026-04-17 09:26 52.37516 4.52637 799 ft 69 kts 204°
2026-04-17 09:27 52.37063 4.52319 815 ft 69 kts 200°
2026-04-17 09:27 52.36564 4.52066 806 ft 77 kts 197°
2026-04-17 09:27 52.36058 4.51805 796 ft 78 kts 198°
2026-04-17 09:27 52.35464 4.51469 810 ft 96 kts 198°
2026-04-17 09:28 52.34840 4.51126 807 ft 95 kts 198°
2026-04-17 09:28 52.34194 4.50760 796 ft 104 kts 201°
2026-04-17 09:28 52.33529 4.50290 803 ft 105 kts 202°
2026-04-17 09:28 52.32861 4.49813 805 ft 103 kts 202°
2026-04-17 09:29 52.32169 4.49312 794 ft 112 kts 204°
2026-04-17 09:29 52.31476 4.48823 795 ft 108 kts 202°
2026-04-17 09:29 52.30785 4.48325 799 ft 108 kts 203°
2026-04-17 09:29 52.30102 4.47839 797 ft 107 kts 203°
2026-04-17 09:30 52.29408 4.47323 799 ft 112 kts 206°
2026-04-17 09:30 52.28721 4.46722 802 ft 114 kts 207°
2026-04-17 09:30 52.28029 4.46098 801 ft 112 kts 208°
2026-04-17 09:30 52.27354 4.45482 745 ft 114 kts 207°
2026-04-17 09:31 52.26662 4.44845 662 ft 113 kts 208°
2026-04-17 09:31 52.25987 4.44240 646 ft 102 kts 207°
2026-04-17 09:31 52.25423 4.43743 611 ft 83 kts 208°
2026-04-17 09:31 52.24955 4.43332 602 ft 71 kts 207°
2026-04-17 09:32 52.24550 4.42972 592 ft 62 kts 208°
2026-04-17 09:32 52.24292 4.42474 591 ft 62 kts 258°
2026-04-17 09:32 52.24493 4.41876 592 ft 65 kts 327°
2026-04-17 09:32 52.24920 4.41882 587 ft 63 kts 32°
2026-04-17 09:33 52.25125 4.42443 588 ft 57 kts 95°
2026-04-17 09:33 52.24992 4.43008 592 ft 52 kts 122°
2026-04-17 09:33 52.24738 4.43361 593 ft 47 kts 172°
2026-04-17 09:33 52.24441 4.43213 588 ft 45 kts 212°
2026-04-17 09:34 52.24190 4.42936 586 ft 42 kts 212°
2026-04-17 09:34 52.23962 4.42662 590 ft 39 kts 212°
2026-04-17 09:34 52.23710 4.42367 575 ft 61 kts 214°
2026-04-17 09:34 52.23260 4.41929 587 ft 80 kts 207°
2026-04-17 09:35 52.22791 4.41506 588 ft 76 kts 207°
2026-04-17 09:35 52.22336 4.41093 587 ft 75 kts 208°
2026-04-17 09:35 52.21872 4.40680 589 ft 76 kts 207°
2026-04-17 09:35 52.21422 4.40263 589 ft 73 kts 207°
2026-04-17 09:36 52.20980 4.39852 587 ft 74 kts 208°
2026-04-17 09:36 52.20529 4.39454 586 ft 73 kts 208°
2026-04-17 09:36 52.20067 4.39042 582 ft 79 kts 207°
2026-04-17 09:36 52.19596 4.38598 583 ft 78 kts 208°
2026-04-17 09:37 52.19138 4.38192 582 ft 73 kts 207°
2026-04-17 09:37 52.18689 4.37794 579 ft 74 kts 208°
2026-04-17 09:37 52.18233 4.37373 586 ft 73 kts 207°
2026-04-17 09:37 52.17795 4.36960 581 ft 73 kts 207°
2026-04-17 09:38 52.17306 4.36478 542 ft 97 kts 211°
2026-04-17 09:38 52.16775 4.35864 601 ft 88 kts 212°
2026-04-17 09:38 52.16275 4.35264 585 ft 91 kts 213°
2026-04-17 09:38 52.15733 4.34630 578 ft 95 kts 214°
2026-04-17 09:39 52.15193 4.34025 576 ft 95 kts 212°
2026-04-17 09:39 52.14832 4.33599 583 ft 97 kts 212°
2026-04-17 09:39 52.14127 4.32767 584 ft 92 kts 212°
2026-04-17 09:39 52.13610 4.32116 577 ft 95 kts 216°
2026-04-17 09:40 52.13121 4.31423 583 ft 92 kts 218°
2026-04-17 09:40 52.12641 4.30670 585 ft 100 kts 222°
2026-04-17 09:40 52.12313 4.30128 587 ft 98 kts 222°
2026-04-17 09:40 52.11840 4.29349 583 ft 96 kts 224°
2026-04-17 09:41 52.11416 4.28501 584 ft 97 kts 232°
2026-04-17 09:41 52.11037 4.27588 576 ft 98 kts 231°
2026-04-17 09:41 52.10515 4.27103 586 ft 81 kts 185°
2026-04-17 09:41 52.10054 4.27423 582 ft 73 kts 133°
2026-04-17 09:42 52.09969 4.28262 578 ft 82 kts 78°
2026-04-17 09:42 52.10338 4.28936 581 ft 82 kts 26°
2026-04-17 09:42 52.10874 4.28882 581 ft 75 kts 323°
2026-04-17 09:42 52.11100 4.28249 580 ft 62 kts 258°
2026-04-17 09:43 52.10922 4.27715 578 ft 54 kts 220°
2026-04-17 09:43 52.10661 4.27264 576 ft 54 kts 221°
2026-04-17 09:43 52.10333 4.27048 577 ft 54 kts 173°
2026-04-17 09:43 52.10027 4.27376 578 ft 53 kts 143°
2026-04-17 09:44 52.09764 4.27786 577 ft 51 kts 143°
2026-04-17 09:44 52.09511 4.28201 578 ft 52 kts 143°
2026-04-17 09:44 52.09249 4.28625 573 ft 55 kts 140°
2026-04-17 09:44 52.09015 4.29123 573 ft 57 kts 134°
2026-04-17 09:45 52.08770 4.29635 575 ft 57 kts 133°
2026-04-17 09:45 52.08540 4.30138 576 ft 53 kts 132°
2026-04-17 09:45 52.08296 4.30561 576 ft 50 kts 141°
2026-04-17 09:45 52.08071 4.30952 577 ft 46 kts 139°
2026-04-17 09:46 52.07850 4.31312 579 ft 45 kts 141°
2026-04-17 09:46 52.07637 4.31659 573 ft 41 kts 147°
2026-04-17 09:46 52.07368 4.31747 576 ft 39 kts 184°
2026-04-17 09:46 52.07104 4.31738 578 ft 36 kts 183°
2026-04-17 09:47 52.06859 4.31743 571 ft 34 kts 183°
2026-04-17 09:47 52.06642 4.31662 573 ft 32 kts 210°
2026-04-17 09:47 52.06509 4.31353 574 ft 36 kts 236°
2026-04-17 09:47 52.06488 4.30929 571 ft 40 kts 266°
2026-04-17 09:48 52.06612 4.30493 573 ft 45 kts 306°
2026-04-17 09:48 52.06880 4.30089 561 ft 65 kts 311°
2026-04-17 09:48 52.07059 4.29281 579 ft 83 kts 279°
2026-04-17 09:48 52.07273 4.28481 530 ft 70 kts 289°
2026-04-17 09:49 52.07326 4.27791 494 ft 57 kts 245°
2026-04-17 09:49 52.07057 4.27503 491 ft 41 kts 185°
2026-04-17 09:49 52.06859 4.27709 476 ft 37 kts 139°
2026-04-17 09:49 52.06583 4.27876 477 ft 53 kts 193°
2026-04-17 09:50 52.06317 4.27514 477 ft 51 kts 244°
2026-04-17 09:50 52.06301 4.26909 478 ft 53 kts 275°
2026-04-17 09:50 52.06419 4.26330 475 ft 56 kts 282°
2026-04-17 09:50 52.06538 4.25743 477 ft 52 kts 277°
2026-04-17 09:51 52.06614 4.25200 473 ft 48 kts 269°
2026-04-17 09:51 52.06640 4.24643 468 ft 54 kts 262°
2026-04-17 09:51 52.06759 4.23882 462 ft 84 kts 302°
2026-04-17 09:51 52.07258 4.23402 471 ft 89 kts 358°
2026-04-17 09:52 52.07836 4.23793 479 ft 94 kts 49°
2026-04-17 09:52 52.08229 4.24601 473 ft 91 kts 45°
2026-04-17 09:52 52.08743 4.25206 465 ft 94 kts 33°
2026-04-17 09:52 52.09343 4.25795 472 ft 102 kts 31°
2026-04-17 09:53 52.09948 4.26347 469 ft 100 kts 36°
2026-04-17 09:53 52.10536 4.27006 472 ft 101 kts 38°
2026-04-17 09:53 52.11059 4.27720 472 ft 95 kts 45°
2026-04-17 09:53 52.11581 4.28411 481 ft 97 kts 43°
2026-04-17 09:54 52.11897 4.29393 531 ft 103 kts 86°
2026-04-17 09:54 52.11891 4.30532 668 ft 98 kts 105°
2026-04-17 09:54 52.11507 4.31397 732 ft 97 kts 148°
2026-04-17 09:54 52.10892 4.31958 751 ft 101 kts 153°
2026-04-17 09:55 52.10270 4.32499 744 ft 106 kts 154°
2026-04-17 09:55 52.09603 4.33096 758 ft 111 kts 154°
2026-04-17 09:55 52.08940 4.33710 758 ft 110 kts 153°
2026-04-17 09:55 52.08243 4.34335 761 ft 118 kts 153°
2026-04-17 09:56 52.07530 4.34979 763 ft 115 kts 151°
2026-04-17 09:56 52.06961 4.35880 760 ft 115 kts 130°
2026-04-17 09:56 52.06544 4.37004 759 ft 118 kts 122°
2026-04-17 09:56 52.06117 4.38161 765 ft 119 kts 123°
2026-04-17 09:57 52.05693 4.39320 763 ft 119 kts 123°
2026-04-17 09:57 52.05290 4.40468 761 ft 118 kts 122°
2026-04-17 09:57 52.05014 4.41702 764 ft 118 kts 103°
2026-04-17 09:57 52.04983 4.43033 768 ft 120 kts 95°
2026-04-17 09:58 52.04988 4.44405 757 ft 122 kts 93°
2026-04-17 09:58 52.05004 4.45759 765 ft 120 kts 94°
2026-04-17 09:58 52.05035 4.47127 764 ft 122 kts 89°
2026-04-17 09:58 52.05109 4.48512 758 ft 125 kts 90°
2026-04-17 09:59 52.05199 4.49924 764 ft 124 kts 88°
2026-04-17 09:59 52.05296 4.51318 769 ft 125 kts 88°
2026-04-17 09:59 52.05398 4.52745 768 ft 127 kts 89°
2026-04-17 09:59 52.05489 4.54154 771 ft 126 kts 90°
2026-04-17 10:00 52.05592 4.55585 772 ft 128 kts 89°
2026-04-17 10:00 52.05673 4.57033 774 ft 128 kts 91°
2026-04-17 10:00 52.05699 4.58459 773 ft 126 kts 94°
2026-04-17 10:00 52.05721 4.59884 769 ft 126 kts 94°
2026-04-17 10:01 52.05732 4.61277 774 ft 121 kts 94°
2026-04-17 10:01 52.05743 4.62637 771 ft 122 kts 94°
2026-04-17 10:01 52.05747 4.64022 772 ft 123 kts 94°
2026-04-17 10:01 52.05741 4.65412 770 ft 123 kts 95°
2026-04-17 10:02 52.05748 4.66805 770 ft 123 kts 94°
2026-04-17 10:02 52.05754 4.68189 771 ft 121 kts 94°
2026-04-17 10:02 52.05812 4.69567 780 ft 123 kts 88°
2026-04-17 10:02 52.05923 4.70933 785 ft 119 kts 84°
2026-04-17 10:03 52.06066 4.72258 780 ft 120 kts 84°
2026-04-17 10:03 52.06215 4.73589 783 ft 120 kts 84°
2026-04-17 10:03 52.06371 4.74928 783 ft 120 kts 85°
2026-04-17 10:03 52.06474 4.76276 780 ft 122 kts 89°
2026-04-17 10:04 52.06563 4.77657 788 ft 123 kts 88°
2026-04-17 10:04 52.06638 4.79043 784 ft 126 kts 88°
2026-04-17 10:04 52.06721 4.80445 783 ft 124 kts 89°
2026-04-17 10:04 52.06818 4.81830 845 ft 111 kts 87°
2026-04-17 10:05 52.06994 4.82855 824 ft 83 kts 77°
2026-04-17 10:05 52.07121 4.83668 804 ft 67 kts 104°
2026-04-17 10:05 52.06871 4.84144 794 ft 52 kts 173°
2026-04-17 10:05 52.06577 4.83925 790 ft 48 kts 233°
2026-04-17 10:06 52.06567 4.83404 785 ft 50 kts 286°
2026-04-17 10:06 52.06844 4.83042 783 ft 56 kts 340°
2026-04-17 10:06 52.07225 4.83159 786 ft 58 kts 40°
2026-04-17 10:06 52.07404 4.83695 784 ft 52 kts 99°
2026-04-17 10:07 52.07316 4.84443 741 ft 87 kts 107°
2026-04-17 10:07 52.07377 4.85447 743 ft 98 kts 86°
2026-04-17 10:07 52.07465 4.86576 777 ft 100 kts 88°
2026-04-17 10:07 52.07560 4.87687 774 ft 100 kts 87°
2026-04-17 10:08 52.07661 4.88811 781 ft 100 kts 86°
2026-04-17 10:08 52.07755 4.89924 779 ft 100 kts 86°
2026-04-17 10:08 52.07847 4.91032 772 ft 99 kts 88°
2026-04-17 10:08 52.07943 4.92158 766 ft 104 kts 86°
2026-04-17 10:09 52.08031 4.93323 782 ft 101 kts 87°
2026-04-17 10:09 52.08125 4.94481 789 ft 104 kts 86°
2026-04-17 10:09 52.08214 4.95633 786 ft 103 kts 87°
2026-04-17 10:09 52.08305 4.96802 791 ft 104 kts 88°
2026-04-17 10:10 52.08351 4.97960 789 ft 100 kts 103°
2026-04-17 10:10 52.08177 4.99059 784 ft 101 kts 111°
2026-04-17 10:10 52.07963 5.00138 794 ft 99 kts 112°
2026-04-17 10:11 52.07525 5.02288 789 ft 100 kts 111°
2026-04-17 10:11 52.07299 5.03369 783 ft 103 kts 112°
2026-04-17 10:11 52.07077 5.04477 796 ft 102 kts 112°
2026-04-17 10:11 52.06863 5.05563 789 ft 101 kts 112°
2026-04-17 10:12 52.06644 5.06658 788 ft 101 kts 112°
2026-04-17 10:12 52.06430 5.07739 781 ft 101 kts 112°
2026-04-17 10:12 52.06213 5.08828 787 ft 101 kts 109°
2026-04-17 10:12 52.06119 5.09967 787 ft 103 kts 97°
2026-04-17 10:13 52.06063 5.11124 788 ft 102 kts 101°
2026-04-17 10:13 52.05973 5.12251 796 ft 95 kts 102°
2026-04-17 10:13 52.05808 5.13173 791 ft 76 kts 134°
2026-04-17 10:13 52.05394 5.13495 781 ft 63 kts 187°
2026-04-17 10:14 52.05089 5.13083 786 ft 60 kts 248°
2026-04-17 10:14 52.05209 5.12435 765 ft 69 kts 302°
2026-04-17 10:14 52.05414 5.11740 771 ft 65 kts 288°
2026-04-17 10:14 52.05599 5.11082 773 ft 64 kts 287°
2026-04-17 10:15 52.05785 5.10433 781 ft 63 kts 289°
2026-04-17 10:15 52.05965 5.09789 784 ft 63 kts 287°
2026-04-17 10:15 52.06142 5.09145 786 ft 62 kts 287°
2026-04-17 10:15 52.06313 5.08507 785 ft 63 kts 288°
2026-04-17 10:16 52.06529 5.07888 786 ft 63 kts 292°
2026-04-17 10:16 52.06650 5.07230 783 ft 60 kts 257°
2026-04-17 10:16 52.06391 5.06814 784 ft 54 kts 191°
2026-04-17 10:16 52.06018 5.06853 787 ft 56 kts 185°
2026-04-17 10:17 52.05637 5.06780 788 ft 55 kts 187°
2026-04-17 10:17 52.05258 5.06676 788 ft 55 kts 206°
2026-04-17 10:17 52.05080 5.06181 788 ft 55 kts 268°
2026-04-17 10:17 52.05297 5.05634 783 ft 65 kts 328°
2026-04-17 10:18 52.05757 5.05616 787 ft 68 kts 14°
2026-04-17 10:18 52.06090 5.06111 791 ft 65 kts 76°
2026-04-17 10:18 52.06153 5.06821 785 ft 65 kts 89°
2026-04-17 10:18 52.06190 5.07541 658 ft 63 kts 90°
2026-04-17 10:19 52.06169 5.08239 567 ft 61 kts 100°
2026-04-17 10:19 52.06149 5.08928 525 ft 61 kts 100°
2026-04-17 10:19 52.06119 5.09607 488 ft 59 kts 101°
2026-04-17 10:19 52.06085 5.10231 431 ft 53 kts 108°
2026-04-17 10:20 52.05997 5.10810 407 ft 51 kts 117°
2026-04-17 10:20 52.05891 5.11315 398 ft 44 kts 126°
2026-04-17 10:20 52.05802 5.11752 386 ft 39 kts 122°
2026-04-17 10:20 52.05708 5.12174 386 ft 41 kts 117°
2026-04-17 10:21 52.05673 5.12653 393 ft 42 kts 91°
2026-04-17 10:21 52.05656 5.12945 264 ft 12 kts 108°
2026-04-17 10:21 52.05643 5.13027 215 ft 8 kts 141°
2026-04-17 10:21 52.05604 5.13135 208 ft 13 kts 164°
2026-04-17 10:22 52.05519 5.13200 228 ft 13 kts 212°
2026-04-17 10:22 52.05446 5.13128 261 ft 13 kts 261°
2026-04-17 10:22 52.05427 5.12988 262 ft 10 kts 331°
2026-04-17 10:22 52.05483 5.12898 221 ft 13 kts 70°
2026-04-17 10:23 52.05511 5.12914 151 ft 8 kts 114°
2026-04-17 10:23 52.05489 5.13011 130 ft 7 kts 108°
2026-04-17 10:23 52.05490 5.13045 65 ft 1 kts 103°
2026-04-17 10:23 52.05487 5.13053 32 ft 1 kts 103°
2026-04-17 10:24 52.05486 5.13060 17 ft 0 kts 102°
2026-04-17 10:25 52.05489 5.13050 64 ft 1 kts 103°
2026-04-17 10:26 52.05488 5.13063 207 ft 7 kts 102°
2026-04-17 10:26 52.05477 5.13249 426 ft 31 kts 96°
2026-04-17 10:26 52.05812 5.13527 551 ft 86 kts 356°
2026-04-17 10:26 52.06445 5.13467 618 ft 102 kts 353°
2026-04-17 10:27 52.07145 5.13260 607 ft 101 kts 336°
2026-04-17 10:27 52.07770 5.12805 596 ft 96 kts 333°
2026-04-17 10:27 52.08369 5.12348 589 ft 95 kts 333°
2026-04-17 10:27 52.08971 5.11901 591 ft 97 kts 333°
2026-04-17 10:28 52.09575 5.11406 590 ft 96 kts 330°
2026-04-17 10:28 52.10163 5.10891 585 ft 97 kts 326°
2026-04-17 10:28 52.10770 5.10349 585 ft 101 kts 328°
2026-04-17 10:28 52.11382 5.09801 589 ft 99 kts 328°
2026-04-17 10:29 52.11971 5.09262 589 ft 96 kts 327°
2026-04-17 10:29 52.12556 5.08743 592 ft 96 kts 328°
2026-04-17 10:29 52.13139 5.08225 587 ft 96 kts 327°
2026-04-17 10:29 52.13733 5.07699 586 ft 98 kts 328°
2026-04-17 10:30 52.14334 5.07157 593 ft 99 kts 327°
2026-04-17 10:30 52.14934 5.06614 592 ft 98 kts 328°
2026-04-17 10:30 52.15515 5.06066 591 ft 96 kts 326°
2026-04-17 10:30 52.16099 5.05513 592 ft 97 kts 326°
2026-04-17 10:31 52.16680 5.04970 593 ft 96 kts 326°
2026-04-17 10:31 52.17316 5.04395 577 ft 108 kts 327°
2026-04-17 10:31 52.17969 5.03814 584 ft 107 kts 326°
2026-04-17 10:31 52.18610 5.03236 583 ft 104 kts 326°
2026-04-17 10:32 52.19224 5.02620 576 ft 104 kts 322°
2026-04-17 10:32 52.19810 5.01940 578 ft 103 kts 314°
2026-04-17 10:32 52.20342 5.01159 578 ft 103 kts 310°
2026-04-17 10:32 52.20844 5.00334 578 ft 102 kts 308°
2026-04-17 10:33 52.21332 4.99495 576 ft 102 kts 307°
2026-04-17 10:33 52.21821 4.98653 576 ft 102 kts 307°
2026-04-17 10:33 52.22316 4.97816 577 ft 103 kts 307°
2026-04-17 10:33 52.22804 4.96969 576 ft 102 kts 304°
2026-04-17 10:34 52.23238 4.96066 576 ft 101 kts 301°
2026-04-17 10:34 52.23656 4.95155 576 ft 100 kts 301°
2026-04-17 10:34 52.24077 4.94237 575 ft 102 kts 302°
2026-04-17 10:34 52.24514 4.93320 577 ft 102 kts 302°
2026-04-17 10:35 52.24954 4.92401 577 ft 104 kts 302°
2026-04-17 10:35 52.25402 4.91476 575 ft 104 kts 302°
2026-04-17 10:35 52.25854 4.90573 572 ft 104 kts 304°
2026-04-17 10:35 52.26317 4.89650 572 ft 104 kts 305°
2026-04-17 10:36 52.26773 4.88729 572 ft 104 kts 305°
2026-04-17 10:36 52.27227 4.87805 571 ft 104 kts 304°
2026-04-17 10:36 52.27683 4.86882 572 ft 104 kts 304°
2026-04-17 10:36 52.28130 4.86018 587 ft 92 kts 304°
2026-04-17 10:37 52.28514 4.85298 577 ft 81 kts 304°
2026-04-17 10:37 52.28893 4.84589 565 ft 83 kts 307°
2026-04-17 10:37 52.29290 4.83882 534 ft 83 kts 323°
2026-04-17 10:37 52.29689 4.83254 529 ft 79 kts 321°
2026-04-17 10:38 52.30080 4.82650 534 ft 74 kts 322°
2026-04-17 10:38 52.30462 4.82088 495 ft 73 kts 314°
2026-04-17 10:38 52.30838 4.81566 488 ft 71 kts 313°
2026-04-17 10:38 52.31223 4.81046 441 ft 69 kts 311°
2026-04-17 10:39 52.31449 4.80498 332 ft 34 kts 242°
2026-04-17 10:39 52.31392 4.80305 147 ft 24 kts 225°
2026-04-17 10:39 52.31290 4.80144 58 ft 13 kts 219°
2026-04-17 10:39 52.31249 4.80080 17 ft 7 kts 219°
2026-04-17 10:40 52.31220 4.80041 10 ft 5 kts 218°
2026-04-17 10:40 52.31180 4.80030 13 ft 8 kts 154°
2026-04-17 10:40 52.31138 4.80085 13 ft 6 kts 128°
2026-04-17 10:40 52.31107 4.80142 13 ft 7 kts 122°
2026-04-17 10:41 52.31107 4.80218 7 ft 8 kts 51°
2026-04-17 10:41 52.31142 4.80269 5 ft 7 kts 50°
2026-04-17 10:41 52.31202 4.80363 12 ft 16 kts 47°
2026-04-17 10:41 52.31300 4.80503 12 ft 19 kts 42°
2026-04-17 10:42 52.31386 4.80624 5 ft 10 kts 41°
2026-04-17 10:42 52.31397 4.80659 2 ft 1 kts 40°
2026-04-17 10:42 52.31401 4.80670 0 ft 1 kts 45°
2026-04-17 10:42 52.31403 4.80672 -5 ft 0 kts 45°